Hourly Weather Roundup
Issued by NWS Central Illinois

Home | Current Version | Previous Version | Text Only | Print | Product List | Glossary On
Versions: 1 2 3 4 5 6 7 8 9 10 11 12 13 14 15 16 17 18 19 20 21 22 23 24 25 26 27 28 29 30 31 32 33 34 35 36 37 38 39 40 41 42 43 44 45 46 47 48 49 50
000
NZUS43 KILX 280210
HWRILX

AREA WEATHER ROUNDUP
NATIONAL WEATHER SERVICE, LINCOLN IL
900 PM CDT MON JUL 27 2015


CITY           SKY/WX    TMP DP  RH WIND       PRES   REMARKS
BLOOMINGTON    CLOUDY    80  74  82 CALM      30.01R HX  84
CHAMPAIGN      LGT RAIN  76  72  87 CALM      29.99R
DANVILLE       MOCLDY    76  73  91 CALM      29.96R
DECATUR        CLOUDY    80  73  79 CALM      29.99R HX  84
EFFINGHAM      CLOUDY    81  74  79 CALM      29.98R HX  86
FLORA          MOCLDY    80  77  90 CALM      29.95R HX  87
GALESBURG      CLOUDY    76  73  91 CALM      29.97F
JACKSONVILLE   CLOUDY    77  72  82 W9        29.99R
LACON          CLOUDY    77  73  88 NE3       29.97S
LAWRENCEVILLE  MOCLDY    82  78  88 E3        29.94R HX  91
LITCHFIELD     CLOUDY    80  75  84 N5        29.98R HX  86
$$


CITY           SKY/WX    TMP DP  RH WIND       PRES   REMARKS
LINCOLN        CLOUDY    80  74  81 CALM      29.98R HX  84
MACOMB         LGT RAIN  76  75  97 SW3       30.00S
MATTOON        MOCLDY    77  72  84 N7        29.97R
MT CARMEL AP   CLOUDY    82  75  78 CALM      29.94S HX  89
OLNEY-NOBLE AP CLOUDY    81  77  89 CALM      29.95R HX  88
PARIS          MOCLDY    77  75  94 CALM      29.99R
PEORIA         CLOUDY    81  72  74 CALM      29.98S HX  85
PONTIAC        MOCLDY    79  76  90 CALM      30.00R HX  82
RANTOUL        CLOUDY    82  75  81 E3        29.98R HX  88
ROBINSON       TSTM      78  74  89 NW6       29.96R HX  80
SPRINGFIELD    CLOUDY    81  76  84 CALM      29.99R HX  87
TAYLORVILLE    CLOUDY    77  75  94 N5        29.98R
$$

...REGIONAL REPORTS...


CITY           SKY/WX    TMP DP  RH WIND       PRES   REMARKS
CHICAGO O`HARE MOCLDY    77  64  64 NE7       30.00R
KANKAKEE       CLOUDY    75  69  80 NE3       30.00R
MOLINE         CLOUDY    78  74  87 SE5       29.95S HX  81
MOUNT STERLING NOT AVBL
MOUNT VERNON   CLOUDY    77  72  83 CALM      29.96R
PITTSFIELD     RAIN      73  70  92 CALM      30.00F
QUINCY         LGT RAIN  72  71  97 SE8       29.96F
ROCKFORD       MOCLDY    77  63  61 E7        30.00R
$$


CITY           SKY/WX    TMP DP  RH WIND       PRES   REMARKS
BURLINGTON     CLOUDY    77  75  93 SE8       29.93F
CEDAR RAPIDS   CLOUDY    76  74  93 SE7       29.92F
DES MOINES     MOCLDY    74  67  78 S10       29.89S
KIRKSVILLE     MOCLDY    75  71  87 SE7       29.96R
OTTUMWA        MOCLDY    74  73  97 SE8       29.91R
ST LOUIS       CLOUDY    79  70  73 N15       29.98R HX  81
$$


CITY           SKY/WX    TMP DP  RH WIND       PRES   REMARKS
TERRE HAUTE    PTCLDY    77  74  90 N3        29.97R
EVANSVILLE     CLOUDY    82  74  76 CALM      29.94R HX  88
INDIANAPOLIS   MOCLDY    80  71  74 E8        29.97R HX  84
LAFAYETTE      MOCLDY    76  68  76 NE5       29.98R
MADISON        MOCLDY    78  64  61 SE8       29.98S HX  80
MILWAUKEE      MOCLDY    73  66  78 NE3       30.01S
$$




USA.gov is the U.S. government's official web portal to all federal, state and local government web resources and services.